| time (UTC) | temp F | wind direction | speed MPH | gust MPH | rain 1hr in | rain 24hr in | rain mn in | humidity % | barometer mb |
| 20260905020009 | 62 | 87 | 3.0 | 9.0 | 0.00 | 0.11 | 0.06 | 67 | 1014.6 |
| 20260905014547 | 63 | 89 | 6.0 | 10.0 | 0.00 | 0.11 | 0.06 | 65 | 1014.5 |
| 20260905013030 | 65 | 78 | 2.0 | 4.0 | 0.00 | 0.11 | 0.06 | 63 | 1014.3 |
| 20260905011513 | 65 | 97 | 1.0 | 6.0 | 0.00 | 0.11 | 0.06 | 60 | 1014.0 |
| 20260905010028 | 66 | 133 | 1.0 | 6.0 | 0.00 | 0.11 | 0.06 | 60 | 1013.7 |
| 20260905004509 | 65 | 78 | 3.0 | 12.0 | 0.00 | 0.11 | 0.06 | 62 | 1013.7 |
| 20260905003051 | 65 | 80 | 5.0 | 12.0 | 0.00 | 0.11 | 0.06 | 62 | 1013.6 |
| 20260905001533 | 66 | 67 | 3.0 | 11.0 | 0.00 | 0.11 | 0.06 | 59 | 1013.7 |
| 20260905000050 | 67 | 83 | 2.0 | 9.0 | 0.00 | 0.11 | 0.06 | 61 | 1013.6 |
| 20260904234556 | 68 | 83 | 3.0 | 9.0 | 0.00 | 0.11 | 0.06 | 58 | 1013.6 |
| 20260904233012 | 69 | 56 | 3.0 | 6.0 | 0.00 | 0.11 | 0.06 | 53 | 1013.5 |
| 20260904231556 | 70 | 48 | 2.0 | 6.0 | 0.00 | 0.11 | 0.06 | 54 | 1013.5 |
| 20260904230040 | 71 | 25 | 2.0 | 5.0 | 0.00 | 0.11 | 0.06 | 51 | 1013.3 |
| 20260904224557 | 71 | 340 | 2.0 | 5.0 | 0.00 | 0.11 | 0.06 | 52 | 1013.2 |
| 20260904223032 | 70 | 267 | 3.0 | 6.0 | 0.00 | 0.11 | 0.06 | 51 | 1013.2 |
| 20260904221549 | 70 | 341 | 1.0 | 7.0 | 0.00 | 0.11 | 0.06 | 52 | 1013.1 |
| 20260904220024 | 69 | 323 | 2.0 | 8.0 | 0.00 | 0.11 | 0.06 | 57 | 1013.1 |
| 20260904214536 | 68 | 327 | 2.0 | 8.0 | 0.00 | 0.11 | 0.06 | 58 | 1012.9 |
| 20260904213024 | 67 | 13 | 2.0 | 5.0 | 0.00 | 0.11 | 0.06 | 61 | 1012.9 |
| 20260904211600 | 68 | 16 | 2.0 | 5.0 | 0.00 | 0.11 | 0.06 | 60 | 1012.9 |
| 20260904210044 | 68 | 279 | 4.0 | 8.0 | 0.00 | 0.11 | 0.06 | 61 | 1012.9 |
| 20260904204526 | 67 | 25 | 0.0 | 6.0 | 0.00 | 0.11 | 0.06 | 63 | 1012.9 |
| 20260904203013 | 66 | 326 | 3.0 | 6.0 | 0.00 | 0.11 | 0.06 | 65 | 1013.0 |
| 20260904201556 | 67 | 337 | 3.0 | 8.0 | 0.00 | 0.11 | 0.06 | 62 | 1013.1 |
| 20260904200012 | 66 | 350 | 1.0 | 9.0 | 0.00 | 0.11 | 0.06 | 65 | 1013.1 |
| 20260904194529 | 66 | 264 | 3.0 | 6.0 | 0.00 | 0.11 | 0.06 | 67 | 1013.1 |
| 20260904193100 | 64 | 338 | 4.0 | 8.0 | 0.00 | 0.11 | 0.06 | 74 | 1013.1 |
| 20260904193004 | 64 | 13 | 3.0 | 10.0 | 0.00 | 0.11 | 0.06 | 73 | 1013.0 |
| 20260904191542 | 63 | 235 | 2.0 | 6.0 | 0.00 | 0.11 | 0.06 | 78 | 1013.1 |
| 20260904190026 | 62 | 192 | 3.0 | 7.0 | 0.00 | 0.11 | 0.06 | 79 | 1013.1 |
| 20260904184519 | 61 | 182 | 3.0 | 7.0 | 0.00 | 0.11 | 0.06 | 82 | 1013.1 |
| 20260904183056 | 61 | 221 | 3.0 | 6.0 | 0.00 | 0.11 | 0.06 | 78 | 1013.3 |
| 20260904181517 | 62 | 72 | 1.0 | 3.0 | 0.00 | 0.11 | 0.06 | 78 | 1013.3 |
| 20260904180051 | 61 | 45 | 1.0 | 5.0 | 0.00 | 0.11 | 0.06 | 83 | 1013.2 |
| 20260904174553 | 60 | 68 | 1.0 | 4.0 | 0.00 | 0.11 | 0.06 | 87 | 1013.2 |
| 20260904173010 | 58 | 74 | 0.0 | 3.0 | 0.00 | 0.11 | 0.06 | 93 | 1013.3 |
| 20260904171612 | 57 | 74 | 1.0 | 3.0 | 0.00 | 0.11 | 0.06 | 93 | 1013.3 |
| 20260904170028 | 57 | 74 | 0.0 | 2.0 | 0.00 | 0.11 | 0.06 | 95 | 1013.3 |
| 20260904164544 | 56 | 74 | 0.0 | 1.0 | 0.00 | 0.11 | 0.06 | 96 | 1013.2 |
| 20260904163027 | 56 | 74 | 0.0 | 1.0 | 0.00 | 0.11 | 0.06 | 96 | 1013.2 |
| 20260904161544 | 56 | 74 | 0.0 | 3.0 | 0.01 | 0.11 | 0.06 | 97 | 1013.2 |
| 20260904160023 | 55 | 74 | 1.0 | 3.0 | 0.01 | 0.11 | 0.06 | 97 | 1013.0 |
| 20260904154532 | 55 | 74 | 0.0 | 3.0 | 0.01 | 0.12 | 0.06 | 97 | 1012.9 |
| 20260904153018 | 55 | 74 | 0.0 | 2.0 | 0.00 | 0.11 | 0.06 | 97 | 1012.7 |
| 20260904151558 | 55 | 74 | 0.0 | 1.0 | 0.00 | 0.11 | 0.05 | 97 | 1012.6 |
| 20260904150034 | 54 | 74 | 0.0 | 0.0 | 0.00 | 0.11 | 0.05 | 97 | 1012.5 |
| 20260904144520 | 54 | 74 | 0.0 | 0.0 | 0.00 | 0.11 | 0.05 | 96 | 1012.3 |
| 20260904143013 | 54 | 74 | 0.0 | 1.0 | 0.00 | 0.11 | 0.05 | 96 | 1012.3 |
| 20260904141544 | 54 | 74 | 0.0 | 0.0 | 0.01 | 0.11 | 0.05 | 96 | 1012.1 |
| 20260904140022 | 54 | 74 | 0.0 | 0.0 | 0.01 | 0.11 | 0.05 | 96 | 1011.9 |
| 20260904134535 | 54 | 74 | 0.0 | 0.0 | 0.02 | 0.12 | 0.05 | 96 | 1011.8 |
| 20260904133059 | 54 | 74 | 0.0 | 0.0 | 0.02 | 0.12 | 0.05 | 96 | 1011.6 |
| 20260904131602 | 54 | 74 | 0.0 | 0.0 | 0.01 | 0.11 | 0.04 | 96 | 1011.5 |
| 20260904131505 | 54 | 74 | 0.0 | 0.0 | 0.01 | 0.11 | 0.04 | 96 | 1011.5 |
| 20260904130039 | 54 | 74 | 0.0 | 0.0 | 0.01 | 0.11 | 0.04 | 96 | 1011.4 |
| 20260904124523 | 54 | 74 | 0.0 | 0.0 | 0.01 | 0.13 | 0.03 | 96 | 1011.4 |
| 20260904123033 | 54 | 74 | 0.0 | 0.0 | 0.01 | 0.13 | 0.03 | 96 | 1011.3 |
| 20260904121545 | 54 | 74 | 0.0 | 0.0 | 0.01 | 0.13 | 0.03 | 95 | 1011.2 |
| 20260904120048 | 54 | 74 | 0.0 | 2.0 | 0.01 | 0.13 | 0.03 | 96 | 1011.2 |
| 20260904114523 | 54 | 74 | 0.0 | 0.0 | 0.00 | 0.12 | 0.02 | 95 | 1011.2 |
| 20260904113037 | 54 | 74 | 0.0 | 0.0 | 0.00 | 0.12 | 0.02 | 95 | 1011.0 |
| 20260904111545 | 54 | 74 | 0.0 | 0.0 | 0.00 | 0.12 | 0.02 | 95 | 1010.9 |
| 20260904110031 | 54 | 74 | 0.0 | 0.0 | 0.00 | 0.12 | 0.02 | 95 | 1010.8 |
| 20260904104605 | 54 | 74 | 0.0 | 2.0 | 0.00 | 0.12 | 0.02 | 95 | 1010.7 |
| 20260904103029 | 54 | 74 | 1.0 | 3.0 | 0.00 | 0.12 | 0.02 | 95 | 1010.6 |
| 20260904101543 | 54 | 74 | 1.0 | 3.0 | 0.00 | 0.12 | 0.02 | 95 | 1010.6 |
| 20260904100023 | 54 | 70 | 0.0 | 0.0 | 0.00 | 0.12 | 0.02 | 94 | 1010.5 |
| 20260904094548 | 54 | 71 | 0.0 | 1.0 | 0.00 | 0.12 | 0.02 | 94 | 1010.4 |
| 20260904093047 | 54 | 70 | 1.0 | 3.0 | 0.00 | 0.12 | 0.02 | 94 | 1010.4 |
| 20260904091507 | 54 | 71 | 0.0 | 0.0 | 0.00 | 0.12 | 0.02 | 94 | 1010.5 |
| 20260904090047 | 54 | 70 | 0.0 | 2.0 | 0.00 | 0.12 | 0.02 | 94 | 1010.4 |
| 20260904084535 | 54 | 70 | 0.0 | 0.0 | 0.00 | 0.13 | 0.02 | 94 | 1010.5 |
| 20260904083021 | 54 | 70 | 0.0 | 0.0 | 0.00 | 0.13 | 0.02 | 93 | 1010.2 |
| 20260904081559 | 55 | 71 | 0.0 | 0.0 | 0.01 | 0.13 | 0.02 | 93 | 1010.3 |
| 20260904081504 | 55 | 71 | 0.0 | 0.0 | 0.01 | 0.13 | 0.02 | 93 | 1010.3 |
| 20260904080041 | 55 | 70 | 0.0 | 2.0 | 0.02 | 0.13 | 0.02 | 92 | 1010.3 |
| 20260904074528 | 55 | 70 | 1.0 | 4.0 | 0.03 | 0.13 | 0.02 | 92 | 1010.6 |
| 20260904073015 | 55 | 70 | 2.0 | 4.0 | 0.03 | 0.13 | 0.02 | 91 | 1010.5 |
| 20260904071556 | 55 | 77 | 2.0 | 5.0 | 0.02 | 0.12 | 0.01 | 91 | 1010.5 |
| 20260904070008 | 56 | 72 | 2.0 | 5.0 | 0.01 | 0.11 | 0.00 | 90 | 1010.4 |
| 20260904064545 | 56 | 64 | 3.0 | 5.0 | 0.00 | 0.10 | 0.11 | 89 | 1010.4 |
| 20260904063031 | 56 | 81 | 2.0 | 5.0 | 0.00 | 0.10 | 0.10 | 89 | 1010.4 |
| 20260904061511 | 56 | 81 | 2.0 | 4.0 | 0.00 | 0.10 | 0.10 | 89 | 1010.3 |
| 20260904060118 | 56 | 81 | 0.0 | 3.0 | 0.00 | 0.10 | 0.10 | 90 | 1010.2 |
| 20260904054538 | 56 | 81 | 0.0 | 2.0 | 0.00 | 0.10 | 0.10 | 90 | 1010.2 |
| 20260904053027 | 56 | 81 | 0.0 | 3.0 | 0.00 | 0.10 | 0.10 | 90 | 1010.2 |
| 20260904051540 | 56 | 81 | 0.0 | 4.0 | 0.00 | 0.10 | 0.10 | 91 | 1010.3 |
| 20260904050031 | 56 | 81 | 2.0 | 4.0 | 0.00 | 0.10 | 0.10 | 91 | 1010.3 |
| 20260904044545 | 56 | 68 | 2.0 | 4.0 | 0.00 | 0.10 | 0.10 | 91 | 1010.4 |
| 20260904043027 | 57 | 83 | 1.0 | 2.0 | 0.00 | 0.10 | 0.10 | 91 | 1010.2 |
| 20260904041512 | 57 | 83 | 0.0 | 2.0 | 0.00 | 0.10 | 0.10 | 91 | 1010.2 |
| 20260904040025 | 57 | 83 | 0.0 | 1.0 | 0.00 | 0.10 | 0.10 | 91 | 1010.2 |
| 20260904034509 | 57 | 83 | 0.0 | 0.0 | 0.01 | 0.10 | 0.10 | 90 | 1010.1 |
| 20260904033100 | 57 | 83 | 0.0 | 0.0 | 0.02 | 0.10 | 0.10 | 89 | 1010.0 |
| 20260904031532 | 57 | 83 | 0.0 | 0.0 | 0.04 | 0.10 | 0.10 | 88 | 1009.8 |
| 20260904030015 | 58 | 83 | 0.0 | 1.0 | 0.04 | 0.10 | 0.10 | 87 | 1009.8 |
| 20260904024611 | 58 | 83 | 0.0 | 2.0 | 0.03 | 0.09 | 0.10 | 86 | 1009.8 |
| 20260904023011 | 59 | 70 | 0.0 | 6.0 | 0.02 | 0.08 | 0.08 | 84 | 1009.9 |
| 20260904021532 | 61 | 176 | 2.0 | 9.0 | 0.00 | 0.06 | 0.06 | 77 | 1009.8 |